KUIPER-00451

导读

KUIPER-00451(NORAD编号68945)是亚马逊柯伊伯(Kuiper)卫星互联网星座中的一颗低轨通信卫星,隶属于柯伊伯系统(Kuiper Systems)项目。作为亚马逊计划构建的数千颗卫星星座的组成部分,该卫星运行在近地轨道,旨在为全球提供高速、低延迟的宽带互联网服务。它延续了柯伊伯星座采用V及Ku波段的技术方案,通过低轨布局降低通信延迟,助力实现覆盖全球偏远地区的网络接入目标,目前处于在轨运行状态,是柯伊伯星座逐步组网过程中的一颗业务卫星。

基本信息
目录编号:
68945
目录名称:
KUIPER-00451
国际标识:
2026-098AC
轨道中心:
EARTH
卫星名称:
KUIPER-00451
卫星全名:
KUIPER-00451
卫星状态:
在轨 (已飞行49 天)
发射日期:
2026-04-30 UTC
国别 :
美国 (US)
星等 :
--
轨道信息
数据来源 国际轨道数据
星历时间: 2026-06-18T08:33:27+0800
16小时前
查看轨道信息
半长轴: 6861.578km
偏心率: 0.0012466
轨道倾角: 51.880°
近地点辐角 142.055°
升交点赤经 65.324°
平近点角 218.132°
近地点: 474.887km
远地点: 491.995km
周期: 94.275分钟
每日圈数: 15.274493
详细信息
使用方式:
暂无
2D轨道图
3D轨道图
轨道高度分析图
轨道倾角分析图
轨道综合分析图
查看轨道综合分析图